Location: Newark
(37.8333°N, 119.5000°W)
Time: 16:10:43
(UTC+00:00)

Tiros 1 despin weight - Pass Details

Date: 21 August 2019
Orbit: 593 x 643 km, 48.2° (Epoch: 22 October)

Event Time Altitude Azimuth Distance (km) Brightness Sun altitude
Rises 14:53:01 0° 294° (WNW) 2,906 ? 17.5°
Reaches altitude 10° 14:55:34 10° 283° (WNW) 2,005 ? 18.0°
Maximum altitude 14:59:29 28° 225° (SW) 1,198 ? 18.8°
Drops below altitude 10° 15:03:26 10° 167° (SSE) 2,016 ? 19.6°
Sets 15:06:01 0° 155° (SSE) 2,925 ? 20.1°
